Calicut International Airport

Jump to: basic info | weather | frequencies | runways | comments

Related pages: nearby airports | nearby navaids | notams | map

Basic information (top)

Codes: CCJ VOCL
Location: lon 11.136800, lat 75.955299, elev 342 ft / 104 m msl
Status: large_airport
Scheduled airline service: yes
Links: Wikipedia Mobile

Weather (top)

Current conditions (rec'd 2014/07/28 17:30Z):

VOCL 281730Z 29004KT 4000 -DZ FEW006 SCT012 OVC080 25/24 Q1011 NOSIG

Airport forecast (rec'd 2014/07/28 18:00Z):

TAF VOCL 281500Z 2818/2924 32005KT 4000 HZ SCT012 BKN080 
      TEMPO 2822/2903 2000 RA/DZ SCT006 SCT012 FEW025CB OVC080 
      BECMG 2904/2905 30010KT 6000 
      TEMPO 2910/2915 3000 TSRA/RA SCT006 FEW025CB OVC080 
      BECMG 2916/2917 07005KT 5000 HZ

Frequencies (top)

Verify before use: may be inaccurate or out of date.

ATIS: 127 MHz (ATIS)
TWR: 122.95 MHz (TWR)

Runways (top)

10/28: 9,383 x 150 ft (2,860 x 46 m) — paved — lighted

Latest comments (top)

Moideenkutty oorakam ( CCJ ): Calicut int airport ( Terminal,1 - ... [read]

Info: Calicut International Airport ... [read]

More... (top)

See also NOTAMs and nearby airports and navaids, or visit the Calicut International Airport page at the main OurAirports website..